User: anonymous   Login
Location: Unspecified
(0.0000°N, 0.0000°E)
Time: 20:42:02
(UTC+00:00)
Language:

Skynet 4A - Orbit

View from above orbital plane
View from above orbital plane
View from above satellite
View from above satellite

Ground track
Ground track

The orbit data is extracted from the following two-line orbital elements,

1 20401U 90001A   17172.27955642 -.00000262 +00000-0 +00000-0 0  9996
2 20401 013.3126 012.6768 0014892 236.8018 098.2877 00.99000035014267
Epoch (UTC): 21 June 2017 06:42:33
Eccentricity: 0.0014892
inclination: 13.3126°
perigee height: 36083 km
apogee height: 36210 km
right ascension of ascending node: 12.6768°
argument of perigee: 236.8018°
revolutions per day: 0.99000035
mean anomaly at epoch: 98.2877°
orbit number at epoch: 1426

The dashed part of the orbit path shows where the satellite is in the earth's shadow,  

DLR